Scottsdale, AZ

8:46 AM MST on June 28, 2017 (GMT -0700)
Scottsdale

Weather History for KSDL - August, 2014

Change the Weather History Date:

Tuesday, August 12, 2014

  Actual Average Record
Temperature  
Mean Temperature 87 °F -  
Max Temperature 97 °F 99 °F 111 °F (2012)
Min Temperature 77 °F 80 °F 73 °F (1999)
Cooling Degree Days 22    
Growing Degree Days 37 (Base 50)    
Moisture  
Dew Point 65 °F    
Average Humidity 51    
Maximum Humidity 82    
Minimum Humidity 30    
Precipitation  
Precipitation 0.05 in - - ()
Sea Level Pressure  
Sea Level Pressure 29.87 in    
Wind  
Wind Speed 5 mph (South)    
Max Wind Speed 18 mph    
Max Gust Speed 30 mph    
Visibility 10 miles    
Events Rain , Thunderstorm    
Averages and records for this station are not official NWS values.
T = Trace of Precipitation, MM = Missing Value Source: NWS Daily Summary

Daily Weather History Graph

Daily Weather History Graph

Search for Another Location

Airport or City:

Trip Planner

Search our weather history database for the weather conditions in past years. The results will help you decide how hot, cold, wet, or windy it might be!

Date:

Astronomy

Aug. 12, 2014 Rise Set
Actual Time 5:47 AM MST 7:17 PM MST
Civil Twilight 5:21 AM MST 7:43 PM MST
Nautical Twilight 4:49 AM MST 8:15 PM MST
Astronomical Twilight 4:16 AM MST 8:48 PM MST
Moon 8:37 PM MST (8/12) 8:00 AM MST (8/12)
Length of Visible Light 14h 22m
Length of Day
13h 29m
Waning Gibbous, 94% of the Moon is Illuminated
Aug 12
Waning Gibbous
Aug 17
Last Quarter
Aug 25
New
Sep 2
First Quarter
Sep 8
Full

Hourly Weather History & Observations

Time (MST) Temp. Heat Index Dew Point Humidity Pressure Visibility Wind Dir Wind Speed Gust Speed Precip Events Conditions
12:53 AM 91.9 °F 90.6 °F 57.0 °F 31% 29.83 in 10.0 mi Calm Calm - N/A   Clear
1:53 AM 93.0 °F 91.7 °F 57.0 °F 30% 29.83 in 10.0 mi Variable 3.5 mph - 0.00 in   Overcast
2:53 AM 91.0 °F 90.5 °F 60.1 °F 35% 29.84 in 10.0 mi Variable 3.5 mph - N/A   Overcast
3:53 AM 89.1 °F 89.3 °F 62.1 °F 40% 29.85 in 10.0 mi Calm Calm - N/A   Clear
4:53 AM 90.0 °F 89.1 °F 59.0 °F 35% 29.85 in 10.0 mi East 5.8 mph - N/A   Clear
5:53 AM 89.1 °F 88.8 °F 60.1 °F 38% 29.87 in 10.0 mi ESE 3.5 mph - N/A   Clear
6:53 AM 91.0 °F 90.5 °F 60.1 °F 35% 29.87 in 10.0 mi East 8.1 mph - N/A   Clear
7:53 AM 91.9 °F 91.5 °F 60.1 °F 34% 29.88 in 10.0 mi East 9.2 mph - N/A   Clear
8:53 AM 93.9 °F 93.6 °F 60.1 °F 32% 29.89 in 10.0 mi East 9.2 mph - N/A   Clear
10:53 AM 93.9 °F 94.0 °F 61.0 °F 33% 29.89 in 10.0 mi South 5.8 mph - N/A   Partly Cloudy
11:53 AM 93.9 °F 95.6 °F 64.0 °F 37% 29.89 in 10.0 mi SSW 8.1 mph - N/A   Partly Cloudy
12:53 PM 96.1 °F 99.3 °F 66.0 °F 37% 29.86 in 10.0 mi SW 9.2 mph - N/A   Clear
1:53 PM 95.0 °F 97.4 °F 64.9 °F 37% 29.83 in 10.0 mi Variable 6.9 mph 16.1 mph N/A   Clear
2:53 PM 97.0 °F 99.3 °F 64.0 °F 34% 29.80 in 10.0 mi WNW 5.8 mph - N/A   Clear
3:53 PM 96.1 °F 98.3 °F 64.0 °F 35% 29.78 in 10.0 mi WSW 9.2 mph - N/A   Clear
4:53 PM 95.0 °F 96.0 °F 63.0 °F 34% 29.78 in 10.0 mi West 8.1 mph - N/A   Clear
5:05 PM 95.0 °F 97.0 °F 64.4 °F 36% 29.87 in 10.0 mi SW 4.6 mph - N/A Thunderstorm Partly Cloudy
5:53 PM 80.1 °F 84.2 °F 73.0 °F 79% 29.85 in 9.0 mi SE 18.4 mph 29.9 mph 0.00 in Rain , Thunderstorm Light Rain
6:19 PM 80.6 °F 84.6 °F 71.6 °F 74% 29.93 in 10.0 mi SSW 10.4 mph - 0.00 in Rain , Thunderstorm Light Rain
6:40 PM 80.6 °F 84.6 °F 71.6 °F 74% 29.94 in 10.0 mi South 9.2 mph 20.7 mph 0.00 in Rain Light Rain
6:53 PM 80.1 °F 83.2 °F 70.0 °F 71% 29.88 in 10.0 mi South 8.1 mph 18.4 mph 0.00 in Rain , Thunderstorm Light Rain
7:10 PM 78.8 °F - 71.6 °F 78% 29.96 in 10.0 mi SE 4.6 mph - 0.01 in Rain Light Rain
7:53 PM 78.1 °F - 72.0 °F 81% 29.90 in 10.0 mi Calm Calm - 0.01 in Rain Light Rain
8:53 PM 78.1 °F - 72.0 °F 81% 29.93 in 10.0 mi North 8.1 mph - 0.03 in Rain Light Rain
9:53 PM 77.0 °F - 71.1 °F 82% 29.93 in 10.0 mi NNW 5.8 mph - 0.00 in   Overcast
10:53 PM 77.0 °F - 71.1 °F 82% 29.92 in 10.0 mi Calm Calm - N/A   Overcast
11:53 PM 77.0 °F - 71.1 °F 82% 29.92 in 10.0 mi Calm Calm - 0.01 in   Overcast